MST,Max TemperatureF,Mean TemperatureF,Min TemperatureF,Max Dew PointF,MeanDew PointF,Min DewpointF,Max Humidity, Mean Humidity, Min Humidity, Max Sea Level PressureIn, Mean Sea Level PressureIn, Min Sea Level PressureIn, Max VisibilityMiles, Mean VisibilityMiles, Min VisibilityMiles, Max Wind SpeedMPH, Mean Wind SpeedMPH, Max Gust SpeedMPH,PrecipitationIn, CloudCover, Events, WindDirDegrees
2012-5-1,84,72,60,29,25,18,28,16,6,29.85,29.64,29.53,10,10,10,13,7,23,0.00,0,,213
2012-5-2,81,72,64,32,28,23,29,19,8,29.83,29.68,29.61,10,10,10,12,6,,0.00,0,,220
2012-5-3,84,70,57,30,27,24,31,19,7,29.99,29.76,29.68,10,10,10,10,6,21,0.00,0,,206
2012-5-4,87,74,61,28,22,17,24,14,4,29.83,29.76,29.68,10,10,10,15,9,25,0.00,0,,212
2012-5-5,82,72,61,23,17,10,20,12,4,29.84,29.79,29.73,10,10,10,12,7,18,0.00,0,,296
2012-5-6,78,65,52,15,11,8,22,12,4,29.92,29.85,29.79,10,10,10,10,5,,0.00,0,,335
2012-5-7,75,66,57,21,11,6,18,11,4,29.84,29.80,29.75,10,10,10,12,7,24,0.00,0,,342
2012-5-8,79,69,59,34,26,14,38,21,4,29.96,29.89,29.84,10,10,10,17,10,24,0.00,0,,58
2012-5-9,81,69,57,28,26,22,33,19,6,29.97,29.86,29.75,10,10,10,9,3,,0.00,0,,264
2012-5-10,89,74,59,26,20,13,25,13,4,29.78,29.67,29.56,10,10,10,9,4,20,0.00,0,,242
2012-5-11,88,74,61,33,24,18,25,14,4,29.84,29.72,29.64,10,10,10,9,4,21,0.00,0,,333
2012-5-12,87,73,59,31,22,8,32,15,4,29.98,29.90,29.84,10,10,10,9,3,,0.00,0,,318
2012-5-13,86,73,60,22,11,2,21,9,4,30.18,29.96,29.87,10,10,10,20,4,25,0.00,0,,33
2012-5-14,87,72,57,20,15,8,20,11,4,30.07,29.98,29.88,10,10,10,12,3,18,0.00,0,,59
2012-5-15,91,74,57,25,16,7,21,10,4,29.96,29.83,29.67,10,10,10,21,5,28,0.00,0,,162
2012-5-16,90,80,69,24,16,8,16,9,4,29.89,29.73,29.66,10,10,10,20,7,29,0.00,0,,238
2012-5-17,93,78,62,18,15,13,16,9,4,29.78,29.63,29.47,10,10,10,14,5,24,0.00,0,,217
2012-5-18,84,74,63,36,25,5,37,17,4,29.74,29.54,29.43,10,10,6,18,11,44,0.00,0,,248
2012-5-19,81,69,57,36,26,19,39,21,4,29.91,29.84,29.75,10,10,10,9,5,,0.00,0,,326
2012-5-20,88,72,57,24,18,14,22,12,4,30.06,29.92,29.85,10,10,10,10,4,,0.00,0,,329
2012-5-21,96,78,61,22,16,11,21,10,4,29.97,29.85,29.72,10,10,10,9,3,16,0.00,0,,267
2012-5-22,96,81,66,29,16,8,20,8,4,29.90,29.66,29.52,10,10,10,15,4,23,0.00,0,,231
2012-5-23,91,82,71,24,18,10,16,9,4,29.72,29.42,29.29,10,10,8,20,10,34,0.00,0,,264
2012-5-24,86,74,61,38,23,15,27,16,4,29.62,29.48,29.32,10,10,10,12,8,23,0.00,0,,323
2012-5-25,88,78,68,38,29,23,28,18,5,29.46,29.38,29.32,10,10,7,23,16,34,0.00,0,,191
2012-5-26,71,64,57,31,19,4,29,18,4,29.83,29.60,29.44,10,10,7,25,12,40,0.00,1,,207
2012-5-27,75,63,51,23,17,6,31,17,4,29.90,29.87,29.82,10,10,10,15,5,24,0.00,0,,268
2012-5-28,81,66,51,21,18,16,28,15,4,29.97,29.89,29.81,10,10,10,9,4,16,0.00,0,,350
2012-5-29,89,73,57,19,11,3,20,10,4,29.91,29.83,29.75,10,10,10,8,3,,0.00,0,,326
2012-5-30,91,76,62,20,12,7,18,8,4,29.88,29.81,29.73,10,10,10,10,3,,0.00,0,,48
2012-5-31,93,78,64,29,24,21,19,12,4,30.07,29.79,29.69,10,10,10,7,2,,0.00,0,,102